FW5907 Provincetown MA US current weather conditions

sailwx.info

Wind from 277 at 15 knots gusting 25

Air temperature 1.1° C
Dewpoint -6.0° C

Last reported at 2019-Dec-06 15:02 UTC.
Time now 2019-Dec-06 15:56 UTC

Location: N 42°04' W 070°09'.
View on Google Maps.

See reports from other nearby stations

  
Tides and Currents Weather Stations Pressure Air Temp Water Temp Dewpoint Dewpoint Depression Visibility Wind Speed Wind Dir Waves Ship Positions
date/time (UTC)wind fromknots sea level pressurealtimeterstation pressurevisibilityair tempwater tempwave heightnotes
2019-Dec-06 15:02 277 15 gusting 25 1.1
2019-Dec-06 14:57 279 14 gusting 22 1.1
2019-Dec-06 14:52 281 17 gusting 25 1.1
2019-Dec-06 14:47 288 15 gusting 26 1.1
2019-Dec-06 14:42 277 14 gusting 21 1.1
2019-Dec-06 14:37 286 16 gusting 29 1.1
2019-Dec-06 14:32 279 14 gusting 25 1.1
2019-Dec-06 14:27 286 13 gusting 24 1.1
2019-Dec-06 14:22 279 17 gusting 26 0.6
2019-Dec-06 14:17 278 19 gusting 28 0.6
2019-Dec-06 14:12 278 18 gusting 30 0.6
2019-Dec-06 14:07 287 15 gusting 27 0.6
2019-Dec-06 14:02 281 17 gusting 26 0.6
2019-Dec-06 13:57 283 14 gusting 25 0.6
2019-Dec-06 13:52 278 16 gusting 26 0.6
2019-Dec-06 13:47 286 18 gusting 28 0.6
2019-Dec-06 13:42 279 19 gusting 27 0.6
2019-Dec-06 13:37 285 15 gusting 26 1.1
2019-Dec-06 13:32 295 18 gusting 30 1.1
2019-Dec-06 13:27 287 17 gusting 28 1.1
2019-Dec-06 13:22 283 19 gusting 29 1.1
2019-Dec-06 13:17 283 17 gusting 27 1.1
2019-Dec-06 13:12 286 19 gusting 28 0.6
2019-Dec-06 13:07 285 19 gusting 28 -0.0
2019-Dec-06 13:02 284 21 gusting 32 -0.6
2019-Dec-06 12:57 290 19 gusting 30 -0.6
2019-Dec-06 12:52 285 20 gusting 33 -0.6
2019-Dec-06 12:47 289 17 gusting 28 -0.6
2019-Dec-06 12:42 284 23 gusting 33 -0.6
2019-Dec-06 12:37 294 20 gusting 36 -0.6
2019-Dec-06 12:32 283 25 gusting 35 -0.6
2019-Dec-06 12:27 291 21 gusting 33 -0.6
2019-Dec-06 12:22 291 22 gusting 33 -0.6
2019-Dec-06 12:17 288 19 gusting 30 -0.6
2019-Dec-06 12:12 290 16 gusting 29 -0.6
2019-Dec-06 12:07 288 17 gusting 26 -0.6
2019-Dec-06 12:02 287 19 gusting 33 -0.6
2019-Dec-06 11:57 293 19 gusting 28 -1.1
2019-Dec-06 11:52 294 14 gusting 27 -1.1
2019-Dec-06 11:47 286 16 gusting 28 -1.1
2019-Dec-06 11:42 284 20 gusting 26 -1.1
2019-Dec-06 11:37 290 19 gusting 31 -1.1
2019-Dec-06 11:32 287 19 gusting 29 -1.1
2019-Dec-06 11:27 284 19 gusting 30 -1.1
2019-Dec-06 11:22 284 21 gusting 31 -1.1
2019-Dec-06 11:17 283 19 gusting 26 -1.1
2019-Dec-06 11:12 290 14 gusting 26 -1.1
2019-Dec-06 11:07 287 14 gusting 32 -1.1
2019-Dec-06 11:02 286 16 gusting 28 -1.1
2019-Dec-06 10:57 287 17 gusting 29 -1.1
2019-Dec-06 10:52 283 18 gusting 26 -1.1
2019-Dec-06 10:47 283 19 gusting 31 -1.1
2019-Dec-06 10:42 279 19 gusting 27 -1.1
2019-Dec-06 10:37 286 17 gusting 28 -1.1
2019-Dec-06 10:32 287 13 gusting 31 -1.1
2019-Dec-06 10:27 289 15 gusting 30 -1.1
2019-Dec-06 10:22 287 19 gusting 31 -1.1
2019-Dec-06 10:17 282 16 gusting 24 -1.1
2019-Dec-06 10:12 282 16 gusting 31 -1.1
2019-Dec-06 10:07 290 18 gusting 31 -1.1
2019-Dec-06 10:02 286 15 gusting 24 -1.1
2019-Dec-06 09:56 289 13 gusting 24 -1.1
2019-Dec-06 09:51 283 16 gusting 24 -1.1
2019-Dec-06 09:46 292 16 gusting 25 -1.1
2019-Dec-06 09:41 290 18 gusting 33 -1.1
2019-Dec-06 09:31 292 19 gusting 26 -1.1
2019-Dec-06 09:26 286 16 gusting 27 -0.6
2019-Dec-06 09:21 290 16 gusting 28 -0.6
2019-Dec-06 09:16 292 20 gusting 34 -0.6
2019-Dec-06 09:11 291 22 gusting 30 -0.6
2019-Dec-06 09:06 292 16 gusting 34 -0.6
2019-Dec-06 09:01 285 25 gusting 36 -0.6
2019-Dec-06 08:56 292 19 gusting 27 -0.6
2019-Dec-06 08:51 294 21 gusting 33 -0.6
2019-Dec-06 08:47 292 22 gusting 33 -0.6
2019-Dec-06 08:41 283 19 gusting 29 -0.6
2019-Dec-06 08:36 288 22 gusting 31 -0.6
2019-Dec-06 08:31 287 19 gusting 33 -0.6
2019-Dec-06 08:26 289 19 gusting 34 -0.6
2019-Dec-06 08:21 294 24 gusting 34 -0.6
2019-Dec-06 08:16 291 21 gusting 37 -0.6
2019-Dec-06 08:11 289 17 gusting 32 -0.6
2019-Dec-06 08:06 296 22 gusting 37 -0.6
2019-Dec-06 08:01 289 22 gusting 36 -0.6
2019-Dec-06 07:56 289 22 gusting 32 -0.6
2019-Dec-06 07:51 288 25 gusting 39 -0.6
2019-Dec-06 07:46 291 20 gusting 33 -0.6
2019-Dec-06 07:41 288 19 gusting 38 -0.6
2019-Dec-06 07:36 291 26 gusting 41 -0.6
2019-Dec-06 07:31 294 20 gusting 38 -0.6
2019-Dec-06 07:26 294 22 gusting 38 -0.6
2019-Dec-06 07:21 292 19 gusting 36 -0.6
2019-Dec-06 07:16 291 26 gusting 37 -0.6
2019-Dec-06 07:11 292 23 gusting 39 -0.6
2019-Dec-06 07:06 298 23 gusting 39 -0.6
2019-Dec-06 07:01 294 25 gusting 40 -0.6
2019-Dec-06 06:56 290 25 gusting 42 -0.6
2019-Dec-06 06:51 290 25 gusting 39 -0.6
2019-Dec-06 06:46 294 22 gusting 36 -0.6
2019-Dec-06 06:41 291 19 gusting 33 -0.6
2019-Dec-06 06:36 294 25 gusting 39 -0.0
2019-Dec-06 06:31 291 24 gusting 34 -0.0
2019-Dec-06 06:26 293 21 gusting 36 -0.0
2019-Dec-06 06:21 289 20 gusting 35 -0.0
2019-Dec-06 06:16 294 26 gusting 37 -0.0
2019-Dec-06 06:11 291 21 gusting 38 -0.0
2019-Dec-06 06:06 295 18 gusting 42 -0.0
2019-Dec-06 06:01 293 20 gusting 36 -0.0
2019-Dec-06 05:56 291 24 gusting 37 -0.0
2019-Dec-06 05:51 296 26 gusting 36 -0.0
2019-Dec-06 05:46 287 26 gusting 45 -0.0
2019-Dec-06 05:41 291 23 gusting 35 -0.0
2019-Dec-06 05:36 292 25 gusting 39 0.6
2019-Dec-06 05:31 292 19 gusting 33 0.6
2019-Dec-06 05:26 292 21 gusting 37 0.6
2019-Dec-06 05:21 297 22 gusting 31 0.6
2019-Dec-06 05:16 295 20 gusting 35 0.6
2019-Dec-06 05:11 292 20 gusting 45 0.6
2019-Dec-06 05:06 292 22 gusting 34 0.6
2019-Dec-06 05:01 288 20 gusting 34 1.1
2019-Dec-06 04:56 292 20 gusting 34 1.1
2019-Dec-06 04:51 302 25 gusting 37 1.1
2019-Dec-06 04:46 292 22 gusting 38 1.1
2019-Dec-06 04:41 300 21 gusting 39 1.1
2019-Dec-06 04:36 291 20 gusting 33 1.1
2019-Dec-06 04:31 293 20 gusting 34 1.1
2019-Dec-06 04:26 292 19 gusting 30 1.1
2019-Dec-06 04:21 289 18 gusting 31 1.7
2019-Dec-06 04:15 294 19 gusting 38 1.7
2019-Dec-06 04:10 292 22 gusting 34 1.7
2019-Dec-06 04:05 297 20 gusting 39 1.7
2019-Dec-06 04:00 295 20 gusting 33 1.7
2019-Dec-06 03:55 291 19 gusting 30 1.7
2019-Dec-06 03:50 291 19 gusting 33 1.7
2019-Dec-06 03:45 293 14 gusting 28 1.7
2019-Dec-06 03:40 292 20 gusting 36 1.7
2019-Dec-06 03:35 288 21 gusting 33 1.7
2019-Dec-06 03:30 296 20 gusting 32 1.7
2019-Dec-06 03:25 288 23 gusting 30 1.7
2019-Dec-06 03:20 289 19 gusting 31 1.7
2019-Dec-06 03:15 287 22 gusting 33 1.7
2019-Dec-06 03:10 294 21 gusting 33 1.7
2019-Dec-06 03:05 289 21 gusting 31 1.7
2019-Dec-06 03:00 287 18 gusting 31 1.7
2019-Dec-06 02:55 290 22 gusting 30 1.7
2019-Dec-06 02:50 284 20 gusting 35 1.7
2019-Dec-06 02:45 294 19 gusting 31 1.7
2019-Dec-06 02:40 290 19 gusting 29 1.7
2019-Dec-06 02:35 292 19 gusting 33 1.7
2019-Dec-06 02:30 289 22 gusting 33 1.7
2019-Dec-06 02:25 290 23 gusting 30 1.7
2019-Dec-06 02:20 287 22 gusting 32 1.7
2019-Dec-06 02:15 282 22 gusting 32 1.7
2019-Dec-06 02:10 287 22 gusting 30 1.7
2019-Dec-06 02:05 285 21 gusting 33 1.7
2019-Dec-06 02:00 292 23 gusting 33 1.7
2019-Dec-06 01:55 290 24 gusting 35 1.7
2019-Dec-06 01:50 290 22 gusting 33 2.2
2019-Dec-06 01:45 287 23 gusting 33 2.2
2019-Dec-06 01:40 288 19 gusting 31 2.2
2019-Dec-06 01:35 288 19 gusting 32 2.2
2019-Dec-06 01:30 279 25 gusting 37 2.2
2019-Dec-06 01:25 289 25 gusting 34 2.2
2019-Dec-06 01:20 283 22 gusting 33 2.8
2019-Dec-06 01:15 287 22 gusting 35 2.8
2019-Dec-06 01:10 285 21 gusting 37 2.8
2019-Dec-06 01:05 281 26 gusting 38 2.8
2019-Dec-06 01:00 286 23 gusting 36 2.8
2019-Dec-06 00:55 282 18 gusting 30 2.8
2019-Dec-06 00:50 283 19 gusting 31 2.8
2019-Dec-06 00:45 283 18 gusting 33 3.3
2019-Dec-06 00:40 282 18 gusting 30 3.3
2019-Dec-06 00:35 289 19 gusting 30 3.3
2019-Dec-06 00:30 285 19 gusting 28 3.3
2019-Dec-06 00:25 287 14 gusting 33 3.3
2019-Dec-06 00:20 289 21 gusting 34 3.3
2019-Dec-06 00:15 291 22 gusting 39 3.3
2019-Dec-06 00:10 293 22 gusting 33 3.3
2019-Dec-05 23:57 290 22 gusting 36 3.9
2019-Dec-05 23:52 289 26 gusting 44 3.9
2019-Dec-05 23:47 290 28 gusting 43 3.9
2019-Dec-05 23:42 297 19 gusting 44 3.9
2019-Dec-05 23:37 290 30 gusting 46 3.9
2019-Dec-05 23:32 289 28 gusting 46 3.9
2019-Dec-05 23:27 291 28 gusting 45 3.9
2019-Dec-05 23:22 290 30 gusting 41 3.9
2019-Dec-05 23:17 289 27 gusting 40 3.9
2019-Dec-05 23:12 292 30 gusting 40 3.9
2019-Dec-05 23:07 289 26 gusting 38 3.9
2019-Dec-05 23:02 288 24 gusting 34 3.9
2019-Dec-05 22:57 287 24 gusting 34 4.4
2019-Dec-05 22:52 293 24 gusting 40 4.4
2019-Dec-05 22:47 288 27 gusting 39 4.4
2019-Dec-05 22:42 295 22 gusting 39 4.4
2019-Dec-05 22:37 290 23 gusting 39 4.4
2019-Dec-05 22:32 284 24 gusting 33 4.4
2019-Dec-05 22:27 286 19 gusting 30 4.4
2019-Dec-05 22:22 284 18 gusting 30 4.4
2019-Dec-05 22:17 282 18 gusting 27 4.4
2019-Dec-05 22:12 286 21 gusting 33 4.4
2019-Dec-05 22:07 285 22 gusting 30 5.0
2019-Dec-05 22:02 293 17 gusting 29 5.0
2019-Dec-05 21:57 293 21 gusting 32 5.0
2019-Dec-05 21:52 295 19 gusting 32 5.0
2019-Dec-05 21:47 292 16 gusting 30 5.0
2019-Dec-05 21:42 287 21 gusting 31 5.0
2019-Dec-05 21:37 296 18 gusting 28 5.0
2019-Dec-05 21:32 286 19 gusting 29 5.0
2019-Dec-05 21:27 291 21 gusting 31 5.0
2019-Dec-05 21:22 293 22 gusting 33 5.0
2019-Dec-05 21:17 294 19 gusting 28 5.0
2019-Dec-05 21:12 292 18 gusting 29 5.0
2019-Dec-05 21:07 295 21 gusting 32 5.0
2019-Dec-05 21:02 291 23 gusting 34 5.0
2019-Dec-05 20:57 293 19 gusting 31 5.0
2019-Dec-05 20:52 291 20 gusting 26 5.0
2019-Dec-05 20:46 287 19 gusting 29 5.0
2019-Dec-05 20:41 292 20 gusting 33 5.0
2019-Dec-05 20:36 290 20 gusting 32 5.6
2019-Dec-05 20:31 288 14 gusting 28 5.6
2019-Dec-05 20:26 290 19 gusting 30 5.6
2019-Dec-05 20:21 292 20 gusting 31 5.6
2019-Dec-05 20:16 290 20 gusting 31 5.6
2019-Dec-05 20:11 294 17 gusting 27 5.6
2019-Dec-05 20:06 291 19 gusting 29 5.6
2019-Dec-05 20:01 291 21 gusting 32 5.6
2019-Dec-05 19:56 292 20 gusting 32 5.6
2019-Dec-05 19:51 288 20 gusting 30 5.6
2019-Dec-05 19:46 293 18 gusting 28 5.6
2019-Dec-05 19:41 291 21 gusting 32 5.6
2019-Dec-05 19:36 291 21 gusting 32 5.6
2019-Dec-05 19:31 291 19 gusting 26 6.1
2019-Dec-05 19:26 294 20 gusting 28 6.1
2019-Dec-05 19:21 291 22 gusting 32 6.1
2019-Dec-05 19:16 290 18 gusting 33 6.1
2019-Dec-05 19:11 282 18 gusting 28 6.7
2019-Dec-05 19:06 292 17 gusting 28 6.7
2019-Dec-05 19:01 293 21 gusting 30 6.7
2019-Dec-05 18:56 292 19 gusting 28 6.1
2019-Dec-05 18:51 293 21 gusting 27 6.1
2019-Dec-05 18:46 295 19 gusting 31 6.1
2019-Dec-05 18:41 289 21 gusting 31 6.1
2019-Dec-05 18:36 293 16 gusting 33 6.1
2019-Dec-05 18:31 292 20 gusting 32 6.1
2019-Dec-05 18:26 289 21 gusting 31 6.1
2019-Dec-05 18:21 292 19 gusting 31 6.1
2019-Dec-05 18:16 292 19 gusting 29 6.1
2019-Dec-05 18:11 291 19 gusting 32 6.1
2019-Dec-05 18:06 291 20 gusting 29 6.1
2019-Dec-05 18:01 294 17 gusting 33 6.1
2019-Dec-05 17:56 292 20 gusting 30 6.1
2019-Dec-05 17:51 291 19 gusting 33 6.1
2019-Dec-05 17:46 292 19 gusting 37 6.1
2019-Dec-05 17:41 288 23 gusting 36 6.1
2019-Dec-05 17:36 294 20 gusting 34 6.1
2019-Dec-05 17:31 293 20 gusting 35 6.1
2019-Dec-05 17:26 291 21 gusting 35 6.1
2019-Dec-05 17:21 294 21 gusting 32 6.1
2019-Dec-05 17:16 291 19 gusting 30 6.1
2019-Dec-05 17:11 298 20 gusting 32 6.1
2019-Dec-05 17:06 293 22 gusting 31 6.1
2019-Dec-05 17:01 292 21 gusting 29 6.1
2019-Dec-05 16:56 292 19 gusting 31 6.1
2019-Dec-05 16:51 293 17 gusting 32 6.1
2019-Dec-05 16:46 293 22 gusting 32 6.1
2019-Dec-05 16:41 292 19 gusting 31 6.1
2019-Dec-05 16:36 290 22 gusting 35 6.1
2019-Dec-05 16:31 292 19 gusting 31 6.1
2019-Dec-05 16:26 289 20 gusting 30 6.1
2019-Dec-05 16:21 292 21 gusting 30 6.1
2019-Dec-05 16:16 291 16 gusting 28 6.1
2019-Dec-05 16:11 287 18 gusting 27 6.1
2019-Dec-05 16:06 284 17 gusting 30 6.1
2019-Dec-05 16:01 295 16 gusting 27 5.6
2019-Dec-05 15:56 286 18 gusting 24 5.6
2019-Dec-05 15:51 288 15 gusting 25 5.6
2019-Dec-05 15:46 293 14 gusting 25 5.6
2019-Dec-05 15:41 286 16 gusting 22 5.6
2019-Dec-05 15:36 286 13 gusting 20 5.6
2019-Dec-05 15:31 291 13 gusting 25 5.0
2019-Dec-05 15:26 293 15 gusting 26 5.0
2019-Dec-05 15:21 295 17 gusting 26 5.0
2019-Dec-05 15:16 289 17 gusting 28 5.0
2019-Dec-05 15:11 284 14 gusting 22 5.0
2019-Dec-05 15:06 282 17 gusting 28 5.0
2019-Dec-05 15:01 288 17 gusting 24 5.0
2019-Dec-05 14:56 290 14 gusting 26 5.0
2019-Dec-05 14:51 289 17 gusting 25 5.0
2019-Dec-05 14:46 291 16 gusting 25 5.0
2019-Dec-05 14:41 288 13 gusting 22 5.0
2019-Dec-05 14:36 284 13 gusting 21 5.0
2019-Dec-05 14:31 285 16 gusting 24 5.0
2019-Dec-05 14:26 288 15 gusting 23 5.0
2019-Dec-05 14:21 290 15 gusting 25 5.0
2019-Dec-05 14:16 291 14 gusting 24 4.4
2019-Dec-05 14:11 288 14 gusting 26 4.4
2019-Dec-05 14:06 284 13 gusting 23 4.4
2019-Dec-05 14:01 285 15 gusting 23 4.4
2019-Dec-05 13:56 293 14 gusting 21 4.4
2019-Dec-05 13:51 290 15 gusting 21 4.4
2019-Dec-05 13:46 283 15 gusting 25 4.4
2019-Dec-05 13:41 292 15 gusting 25 4.4
2019-Dec-05 13:36 284 17 gusting 23 4.4
2019-Dec-05 13:31 288 15 gusting 22 4.4
2019-Dec-05 13:26 293 16 gusting 24 4.4
2019-Dec-05 13:21 290 15 gusting 24 3.9
2019-Dec-05 13:16 291 13 gusting 21 3.9
2019-Dec-05 13:11 291 14 gusting 23 3.9
2019-Dec-05 13:06 288 14 gusting 22 3.9
2019-Dec-05 13:01 288 16 gusting 23 3.9
2019-Dec-05 12:56 292 15 gusting 24 3.9
2019-Dec-05 12:51 284 13 gusting 24 3.9
2019-Dec-05 12:46 291 18 gusting 25 3.3
2019-Dec-05 12:41 290 18 gusting 27 3.3
2019-Dec-05 12:36 285 13 gusting 22 2.8
2019-Dec-05 12:31 288 14 gusting 22 2.8
2019-Dec-05 12:26 291 15 gusting 23 2.8
2019-Dec-05 12:21 295 12 gusting 20 2.8
2019-Dec-05 12:16 288 13 gusting 19 2.8
2019-Dec-05 12:11 286 13 gusting 21 2.8
2019-Dec-05 12:06 290 13 gusting 22 2.8
2019-Dec-05 12:01 289 13 gusting 21 2.8
2019-Dec-05 11:56 287 10 gusting 16 2.8
2019-Dec-05 11:51 288 12 gusting 15 2.8
2019-Dec-05 11:46 291 12 gusting 17 2.8
2019-Dec-05 11:41 292 13 gusting 17 2.2
2019-Dec-05 11:36 289 12 gusting 17 2.2
2019-Dec-05 11:31 289 11 gusting 18 2.2
2019-Dec-05 11:26 282 10 gusting 13 2.2
2019-Dec-05 11:21 287 9 gusting 16 2.2
2019-Dec-05 11:16 286 10 gusting 13 2.8
2019-Dec-05 11:11 284 10 gusting 14 2.8
2019-Dec-05 11:06 281 10 gusting 13 2.8
2019-Dec-05 11:01 283 11 gusting 19 2.8
2019-Dec-05 10:56 293 13 gusting 19 2.8
2019-Dec-05 10:51 292 12 gusting 18 2.8
2019-Dec-05 10:46 288 11 gusting 17 2.8
2019-Dec-05 10:41 289 10 gusting 15 2.2
2019-Dec-05 10:36 294 10 gusting 15 2.2
2019-Dec-05 10:31 288 9 gusting 14 2.2
2019-Dec-05 10:26 289 9 gusting 13 2.2
2019-Dec-05 10:21 287 9 gusting 13 2.2
2019-Dec-05 10:16 288 9 gusting 12 2.2
2019-Dec-05 10:11 287 8 gusting 11 2.2
2019-Dec-05 10:06 288 8 gusting 12 2.2
2019-Dec-05 10:01 285 7 gusting 12 2.2
2019-Dec-05 09:56 287 9 gusting 14 2.2
2019-Dec-05 09:51 289 8 gusting 15 2.2
2019-Dec-05 09:46 280 10 gusting 13 1.7
2019-Dec-05 09:41 288 9 gusting 13 1.7
2019-Dec-05 09:36 286 7 gusting 10 1.7
2019-Dec-05 09:31 290 8 gusting 11 1.7
2019-Dec-05 09:26 287 7 gusting 12 1.7
2019-Dec-05 09:21 286 8 gusting 12 1.7
2019-Dec-05 09:16 290 7 gusting 12 1.7
2019-Dec-05 09:11 288 8 gusting 11 1.7
2019-Dec-05 09:06 287 7 gusting 11 1.7
2019-Dec-05 09:01 291 8 gusting 13 1.7
2019-Dec-05 08:56 289 8 gusting 12 1.7
2019-Dec-05 08:51 291 8 gusting 12 1.7
2019-Dec-05 08:46 286 6 gusting 12 1.7
2019-Dec-05 08:41 286 8 gusting 11 1.7
2019-Dec-05 08:36 286 8 gusting 13 1.7
2019-Dec-05 08:31 292 9 gusting 13 1.7
2019-Dec-05 08:26 283 9 gusting 13 1.7
2019-Dec-05 08:21 290 9 gusting 15 1.7
2019-Dec-05 08:16 294 10 gusting 13 1.7
2019-Dec-05 08:11 286 7 gusting 10 1.7
2019-Dec-05 08:06 284 8 gusting 10 1.7
2019-Dec-05 08:01 282 8 gusting 12 1.7
2019-Dec-05 07:56 278 7 gusting 12 1.7
2019-Dec-05 07:51 284 8 gusting 14 1.7
2019-Dec-05 07:46 282 8 gusting 13 1.7
2019-Dec-05 07:41 285 9 gusting 12 1.7
2019-Dec-05 07:35 282 7 gusting 11 1.7
2019-Dec-05 07:30 282 7 gusting 10 1.7
2019-Dec-05 07:25 274 6 gusting 9 1.7
2019-Dec-05 07:20 280 7 gusting 11 1.7
2019-Dec-05 07:15 282 7 gusting 11 1.7
2019-Dec-05 07:10 278 8 gusting 11 1.7
2019-Dec-05 07:05 283 6 gusting 10 1.7
2019-Dec-05 07:00 282 7 gusting 10 1.7
2019-Dec-05 06:55 277 6 gusting 9 1.7
2019-Dec-05 06:50 273 6 gusting 8 1.7
2019-Dec-05 06:45 269 6 gusting 7 1.7
2019-Dec-05 06:40 265 6 gusting 8 1.7
2019-Dec-05 06:35 266 6 gusting 7 1.7
2019-Dec-05 06:30 277 7 gusting 10 1.7
2019-Dec-05 06:25 280 5 gusting 8 1.7
2019-Dec-05 06:20 275 6 gusting 8 2.2
2019-Dec-05 06:15 278 7 gusting 11 2.2
2019-Dec-05 06:10 285 9 gusting 12 2.2
2019-Dec-05 06:05 280 6 gusting 9 2.2
2019-Dec-05 06:00 282 7 gusting 11 2.2
2019-Dec-05 05:55 285 8 gusting 11 2.2
2019-Dec-05 05:50 284 9 gusting 13 2.2
2019-Dec-05 05:45 283 9 gusting 13 2.2
2019-Dec-05 05:40 283 8 gusting 13 2.8
2019-Dec-05 05:35 281 9 gusting 11 2.8
2019-Dec-05 05:30 280 8 gusting 12 2.8
2019-Dec-05 05:25 285 8 gusting 13 2.8
2019-Dec-05 05:20 283 9 gusting 12 2.8
2019-Dec-05 05:15 289 7 gusting 10 2.8
2019-Dec-05 05:10 286 7 gusting 11 2.8
2019-Dec-05 05:05 285 6 gusting 11 2.8
2019-Dec-05 05:00 284 9 gusting 13 2.8
2019-Dec-05 04:55 282 8 gusting 11 2.8
2019-Dec-05 04:50 280 6 gusting 10 2.8
2019-Dec-05 04:45 283 7 gusting 10 2.8
2019-Dec-05 04:40 283 8 gusting 10 2.8
2019-Dec-05 04:35 280 8 gusting 10 2.8
2019-Dec-05 04:30 275 6 gusting 11 2.8
2019-Dec-05 04:25 278 8 gusting 12 2.8
2019-Dec-05 04:20 286 8 gusting 12 2.8
2019-Dec-05 04:15 279 6 gusting 9 2.8
2019-Dec-05 04:10 278 6 gusting 8 2.8
2019-Dec-05 04:05 269 5 gusting 7 2.8
2019-Dec-05 04:00 265 5 gusting 8 2.8
2019-Dec-05 03:55 275 6 gusting 10 2.8
2019-Dec-05 03:50 285 7 gusting 12 2.8
2019-Dec-05 03:45 289 8 gusting 11 2.8
2019-Dec-05 03:40 294 6 gusting 14 2.8
2019-Dec-05 03:35 290 9 gusting 15 2.8
2019-Dec-05 03:30 284 7 gusting 12 2.8
2019-Dec-05 03:25 287 7 gusting 9 2.8
2019-Dec-05 03:20 273 6 gusting 7 2.8
2019-Dec-05 03:15 269 5 gusting 9 3.3
2019-Dec-05 03:10 276 6 gusting 9 3.3
2019-Dec-05 03:05 278 6 gusting 9 3.3
2019-Dec-05 03:00 279 6 gusting 10 3.3
2019-Dec-05 02:55 276 8 gusting 11 3.3
2019-Dec-05 02:50 277 7 gusting 10 3.3
2019-Dec-05 02:45 262 6 gusting 9 3.3
2019-Dec-05 02:40 270 6 gusting 10 3.3
2019-Dec-05 02:35 264 7 gusting 10 3.3
2019-Dec-05 02:30 271 8 gusting 11 3.3
2019-Dec-05 02:25 260 6 gusting 10 3.3
2019-Dec-05 02:20 275 7 gusting 12 3.3
2019-Dec-05 02:15 274 6 gusting 10 3.3
2019-Dec-05 02:10 265 6 gusting 11 3.3
2019-Dec-05 02:05 264 6 gusting 9 3.3
2019-Dec-05 02:00 277 6 gusting 8 3.3
2019-Dec-05 01:55 268 6 gusting 10 3.3
2019-Dec-05 01:50 271 6 gusting 8 3.3
2019-Dec-05 01:45 262 5 gusting 8 3.3
2019-Dec-05 01:40 263 5 gusting 6 3.3
2019-Dec-05 01:35 261 6 gusting 8 3.3
2019-Dec-05 01:30 263 6 gusting 9 3.3
2019-Dec-05 01:25 258 7 gusting 10 3.3
2019-Dec-05 01:20 261 6 gusting 8 3.3
2019-Dec-05 01:15 257 7 gusting 12 3.3
2019-Dec-05 01:10 260 6 gusting 8 3.3
2019-Dec-05 01:05 253 6 gusting 11 3.3
2019-Dec-05 01:00 256 6 gusting 8 3.3
2019-Dec-05 00:55 255 6 gusting 8 3.3
2019-Dec-05 00:50 262 6 gusting 8 3.3
2019-Dec-05 00:45 261 5 gusting 6 3.3
2019-Dec-05 00:40 262 5 gusting 8 3.3
2019-Dec-05 00:35 258 6 gusting 6 3.3
2019-Dec-05 00:30 259 5 gusting 7 3.3
2019-Dec-05 00:25 258 5 gusting 6 3.3
2019-Dec-05 00:20 257 5 gusting 7 3.3
2019-Dec-05 00:15 256 5 gusting 6 3.3
2019-Dec-05 00:10 264 5 gusting 6 2.8
2019-Dec-04 23:55 253 5 gusting 6 2.8
2019-Dec-04 23:50 263 5 gusting 7 2.8
2019-Dec-04 23:45 251 6 gusting 8 2.8
2019-Dec-04 23:40 267 5 gusting 8 2.8
2019-Dec-04 23:35 259 5 gusting 7 2.8
2019-Dec-04 23:30 255 5 gusting 7 2.8
2019-Dec-04 23:25 255 6 gusting 7 2.8
2019-Dec-04 23:20 255 6 gusting 7 2.8
2019-Dec-04 23:15 263 5 gusting 6 2.8
2019-Dec-04 23:10 260 4 gusting 6 2.8
2019-Dec-04 23:05 253 5 gusting 7 2.8
2019-Dec-04 23:00 262 5 gusting 10 2.8
2019-Dec-04 22:55 248 6 gusting 9 2.8
2019-Dec-04 22:45 256 5 gusting 7 2.8
2019-Dec-04 22:40 250 5 gusting 8 2.8
2019-Dec-04 22:35 258 6 gusting 7 2.8
2019-Dec-04 22:30 253 6 gusting 8 2.8
2019-Dec-04 22:25 248 6 gusting 9 2.8
2019-Dec-04 22:20 245 6 gusting 9 2.8
2019-Dec-04 22:15 248 5 gusting 7 2.8
2019-Dec-04 22:10 246 4 gusting 6 2.8
2019-Dec-04 22:05 246 4 gusting 6 2.8
2019-Dec-04 22:00 255 5 gusting 6 2.8
2019-Dec-04 21:54 259 3 gusting 5 2.8
2019-Dec-04 21:49 248 4 gusting 6 2.8
2019-Dec-04 21:44 237 4 gusting 5 2.8
2019-Dec-04 21:39 249 4 gusting 6 2.8
2019-Dec-04 21:34 261 3 gusting 4 2.8
2019-Dec-04 21:29 257 4 gusting 6 2.8
2019-Dec-04 21:24 269 4 gusting 7 2.8
2019-Dec-04 21:19 255 5 gusting 7 2.8
2019-Dec-04 21:14 231 6 gusting 6 2.8
2019-Dec-04 21:09 248 4 gusting 6 2.8
2019-Dec-04 21:04 229 4 gusting 6 2.8
2019-Dec-04 20:59 247 5 gusting 6 2.8
2019-Dec-04 20:54 248 4 gusting 6 2.8
2019-Dec-04 20:49 257 3 gusting 6 2.8
2019-Dec-04 20:44 254 4 gusting 6 2.8
2019-Dec-04 20:39 255 5 gusting 7 2.8
2019-Dec-04 20:34 274 5 gusting 6 2.8
2019-Dec-04 20:29 233 5 gusting 6 2.8
2019-Dec-04 20:24 258 6 gusting 6 2.8
2019-Dec-04 20:19 248 4 gusting 6 2.8
2019-Dec-04 20:14 256 6 gusting 7 2.8
2019-Dec-04 20:09 270 5 gusting 9 2.8
2019-Dec-04 20:04 277 5 gusting 8 2.8
2019-Dec-04 19:59 256 5 gusting 9 2.8
2019-Dec-04 19:54 266 7 gusting 12 2.8
2019-Dec-04 19:49 269 6 gusting 13 2.8
2019-Dec-04 19:44 270 7 gusting 13 2.8
2019-Dec-04 19:39 238 6 gusting 11 2.8
2019-Dec-04 19:34 253 6 gusting 12 2.8
2019-Dec-04 19:29 251 7 gusting 11 2.8
2019-Dec-04 19:24 254 7 gusting 11 2.8
2019-Dec-04 19:19 253 8 gusting 13 2.8
2019-Dec-04 19:14 249 9 gusting 14 2.8
2019-Dec-04 19:09 268 10 gusting 14 2.8
2019-Dec-04 19:04 253 9 gusting 15 2.8
2019-Dec-04 18:59 265 10 gusting 15 2.8
2019-Dec-04 18:54 258 12 gusting 16 2.8
2019-Dec-04 18:49 254 10 gusting 16 2.8
2019-Dec-04 18:44 250 9 gusting 17 2.8
2019-Dec-04 18:39 271 10 gusting 17 2.8
2019-Dec-04 18:34 256 9 gusting 13 2.8
2019-Dec-04 18:29 244 10 gusting 18 2.8
2019-Dec-04 18:23 263 13 gusting 18 2.8
2019-Dec-04 18:18 260 13 gusting 17 2.8
2019-Dec-04 18:13 262 13 gusting 17 2.8
2019-Dec-04 18:08 235 9 gusting 14 2.8
2019-Dec-04 18:03 236 10 gusting 14 2.8
2019-Dec-04 17:58 251 7 gusting 13 2.8
2019-Dec-04 17:53 251 6 gusting 12 2.8
2019-Dec-04 17:48 264 9 gusting 13 2.8
2019-Dec-04 17:43 268 9 gusting 14 2.8
2019-Dec-04 17:38 257 10 gusting 15 2.8
2019-Dec-04 17:33 255 10 gusting 15 2.8
2019-Dec-04 17:28 253 9 gusting 13 2.8
2019-Dec-04 17:23 238 9 gusting 13 2.8
2019-Dec-04 17:18 229 7 gusting 11 2.8
2019-Dec-04 17:13 239 5 gusting 13 2.2
2019-Dec-04 17:08 244 8 gusting 13 2.2
2019-Dec-04 17:03 258 7 gusting 13 2.2
2019-Dec-04 16:58 249 9 gusting 13 2.2
2019-Dec-04 16:53 232 9 gusting 12 2.8
2019-Dec-04 16:48 280 8 gusting 13 2.8
2019-Dec-04 16:43 240 7 gusting 14 2.8
2019-Dec-04 16:38 252 10 gusting 14 2.8
2019-Dec-04 16:33 241 7 gusting 14 2.8
2019-Dec-04 16:28 270 9 gusting 13 2.8
2019-Dec-04 16:23 266 9 gusting 14 2.8
2019-Dec-04 16:18 252 9 gusting 15 2.2
2019-Dec-04 16:13 267 11 gusting 13 2.2
2019-Dec-04 16:08 252 10 gusting 16 2.2
2019-Dec-04 16:03 256 10 gusting 16 2.2
2019-Dec-04 15:58 278 10 gusting 14 2.2
2019-Dec-04 15:53 239 10 gusting 13 2.2
2019-Dec-04 15:48 258 7 gusting 13 2.2
2019-Dec-04 15:43 237 9 gusting 17 2.2
2019-Dec-04 15:38 256 8 gusting 13 2.2
2019-Dec-04 15:33 237 10 gusting 16 2.2
2019-Dec-04 15:28 220 10 gusting 14 2.2
2019-Dec-04 15:23 230 8 gusting 13 2.2
2019-Dec-04 15:18 236 10 gusting 14 2.2
2019-Dec-04 15:13 237 9 gusting 13 2.2
2019-Dec-04 15:08 231 12 gusting 13 1.7
2019-Dec-04 15:03 234 7 gusting 15 1.7